Location: Zagreb
(45.8000°N, 16.0000°E)
Time: 04:35:13
(UTC+01:00)

ISS - Visible Passes

Search period start: 26 October 2014 00:00
Search period end: 04 November 2014 23:00
Orbit: 412 x 416 km, 51.6° (Epoch: 25 October)

Date Brightness Start Highest point End Pass type
(mag) Time Alt. Az. Time Alt. Az. Time Alt. Az.
26 Oct -0.9 18:26:41 10° W 18:29:17 21° SW 18:31:53 10° S visible
27 Oct -1.6 17:37:07 10° WNW 17:40:11 34° SW 17:43:14 10° SSE visible
29 Oct -0.2 17:36:00 10° W 17:37:57 15° SW 17:39:54 10° S visible
